Back to Top

Language: 

My Weather Underground Personal Weather Station Historical Data with Graphs...

Delerius Weather Station Historical Data
Daily Summary for October 2, 2017 Units:  English    Metric   Both
« Previous Day
Next Day »
Daily Weekly Monthly Yearly Custom
  High: Low: Average:
Temperature: 59.5 °F 51.3 °F 56.3 °F
Dew Point: 54.0 °F 46.5 °F 48.9 °F
Humidity: 90 % 66 % 77 %
Wind Speed: 24.0 mph 6.0 mph 14.6 mph
Wind Gust: 43.0 mph - -
Wind:- - West
Pressure: 29.92 in 29.63 in -
Precipitation: 0.02 in    
Historical Graphs
 
 
Tabular Data for October 2, 2017
Time Temperature Dew Point Pressure Wind Wind Speed Wind Gust Humidity Rainfall Rate (Hourly) solar Conditions
00:02 59.5 °F 54.0 °F 29.63 in West 13.0 mph 23.0 mph 82 % 0.00 in 0 W/m2
00:07 59.4 °F 53.5 °F 29.63 in West 13.0 mph 27.0 mph 81 % 0.00 in 0 W/m2
00:12 59.5 °F 53.4 °F 29.64 in WSW 16.0 mph 27.0 mph 80 % 0.00 in 0 W/m2
00:17 59.5 °F 53.0 °F 29.64 in WSW 16.0 mph 27.0 mph 79 % 0.00 in 0 W/m2
00:22 59.5 °F 53.4 °F 29.64 in West 13.0 mph 26.0 mph 80 % 0.00 in 0 W/m2
00:27 59.4 °F 53.2 °F 29.64 in WSW 13.0 mph 30.0 mph 80 % 0.00 in 0 W/m2
00:32 59.4 °F 53.2 °F 29.64 in West 14.0 mph 30.0 mph 80 % 0.00 in 0 W/m2
00:37 59.2 °F 52.7 °F 29.64 in West 15.0 mph 29.0 mph 79 % 0.00 in 0 W/m2
00:42 58.8 °F 52.0 °F 29.64 in West 15.0 mph 29.0 mph 78 % 0.00 in 0 W/m2
00:47 58.6 °F 50.7 °F 29.65 in West 15.0 mph 29.0 mph 75 % 0.00 in 0 W/m2
00:52 58.5 °F 50.6 °F 29.64 in West 15.0 mph 28.0 mph 75 % 0.00 in 0 W/m2
00:57 58.5 °F 50.6 °F 29.64 in West 14.0 mph 23.0 mph 75 % 0.00 in 0 W/m2
01:07 58.3 °F 50.4 °F 29.65 in West 15.0 mph 26.0 mph 75 % 0.00 in 0 W/m2
01:12 58.1 °F 50.2 °F 29.65 in West 13.0 mph 21.0 mph 75 % 0.00 in 0 W/m2
01:17 57.9 °F 50.0 °F 29.64 in West 12.0 mph 21.0 mph 75 % 0.00 in 0 W/m2
01:22 57.9 °F 50.4 °F 29.65 in West 11.0 mph 24.0 mph 76 % 0.00 in 0 W/m2
01:27 57.7 °F 49.9 °F 29.65 in West 13.0 mph 24.0 mph 75 % 0.00 in 0 W/m2
01:32 57.7 °F 50.2 °F 29.65 in WSW 12.0 mph 22.0 mph 76 % 0.00 in 0 W/m2
01:37 57.6 °F 50.0 °F 29.65 in West 12.0 mph 24.0 mph 76 % 0.00 in 0 W/m2
01:42 57.6 °F 50.4 °F 29.65 in West 13.0 mph 24.0 mph 77 % 0.00 in 0 W/m2
01:47 57.6 °F 50.8 °F 29.66 in West 13.0 mph 22.0 mph 78 % 0.00 in 0 W/m2
01:52 57.6 °F 51.1 °F 29.66 in West 11.0 mph 20.0 mph 79 % 0.00 in 0 W/m2
01:57 57.6 °F 51.4 °F 29.66 in WSW 13.0 mph 24.0 mph 80 % 0.00 in 0 W/m2
02:02 57.6 °F 51.1 °F 29.66 in WSW 14.0 mph 24.0 mph 79 % 0.00 in 0 W/m2
02:07 57.4 °F 50.9 °F 29.66 in WSW 13.0 mph 24.0 mph 79 % 0.00 in 0 W/m2
02:12 57.2 °F 50.7 °F 29.66 in WSW 13.0 mph 21.0 mph 79 % 0.00 in 0 W/m2
02:17 57.0 °F 50.6 °F 29.66 in West 12.0 mph 22.0 mph 79 % 0.00 in 0 W/m2
02:22 57.0 °F 49.9 °F 29.66 in West 12.0 mph 22.0 mph 77 % 0.00 in 0 W/m2
02:27 57.0 °F 49.9 °F 29.66 in WSW 11.0 mph 22.0 mph 77 % 0.00 in 0 W/m2
02:32 57.0 °F 49.9 °F 29.66 in WSW 9.0 mph 18.0 mph 77 % 0.00 in 0 W/m2
02:37 57.0 °F 49.9 °F 29.66 in West 9.0 mph 19.0 mph 77 % 0.00 in 0 W/m2
02:42 57.0 °F 49.9 °F 29.67 in West 11.0 mph 19.0 mph 77 % 0.00 in 0 W/m2
02:47 57.0 °F 49.9 °F 29.66 in West 11.0 mph 25.0 mph 77 % 0.00 in 0 W/m2
02:52 56.8 °F 49.7 °F 29.66 in West 12.0 mph 25.0 mph 77 % 0.00 in 0 W/m2
02:57 56.8 °F 49.7 °F 29.66 in West 13.0 mph 23.0 mph 77 % 0.00 in 0 W/m2
03:02 56.8 °F 50.1 °F 29.67 in WSW 12.0 mph 21.0 mph 78 % 0.00 in 0 W/m2
03:08 56.7 °F 49.9 °F 29.67 in WSW 11.0 mph 21.0 mph 78 % 0.00 in 0 W/m2
03:13 56.7 °F 49.5 °F 29.68 in West 11.0 mph 23.0 mph 77 % 0.00 in 0 W/m2
03:18 56.7 °F 49.2 °F 29.67 in West 12.0 mph 23.0 mph 76 % 0.00 in 0 W/m2
03:23 56.5 °F 49.0 °F 29.67 in WSW 12.0 mph 22.0 mph 76 % 0.00 in 0 W/m2
03:28 56.5 °F 48.6 °F 29.68 in WSW 13.0 mph 26.0 mph 75 % 0.00 in 0 W/m2
03:33 56.5 °F 48.3 °F 29.67 in WSW 14.0 mph 26.0 mph 74 % 0.00 in 0 W/m2
03:38 56.3 °F 48.1 °F 29.67 in WSW 13.0 mph 24.0 mph 74 % 0.00 in 0 W/m2
03:43 56.1 °F 47.6 °F 29.67 in West 15.0 mph 24.0 mph 73 % 0.00 in 0 W/m2
03:48 55.9 °F 47.4 °F 29.67 in West 15.0 mph 24.0 mph 73 % 0.00 in 0 W/m2
03:53 55.9 °F 47.4 °F 29.67 in West 15.0 mph 27.0 mph 73 % 0.00 in 0 W/m2
03:58 55.9 °F 47.0 °F 29.67 in West 16.0 mph 29.0 mph 72 % 0.00 in 0 W/m2
04:03 55.9 °F 47.0 °F 29.67 in WSW 17.0 mph 32.0 mph 72 % 0.00 in 0 W/m2
04:08 55.9 °F 47.0 °F 29.67 in WSW 18.0 mph 32.0 mph 72 % 0.00 in 0 W/m2
04:13 55.8 °F 46.9 °F 29.67 in WSW 16.0 mph 29.0 mph 72 % 0.00 in 0 W/m2
04:18 55.8 °F 46.9 °F 29.67 in WSW 14.0 mph 26.0 mph 72 % 0.00 in 0 W/m2
04:22 55.6 °F 46.7 °F 29.67 in WSW 14.0 mph 24.0 mph 72 % 0.00 in 0 W/m2
04:23 55.6 °F 46.7 °F 29.67 in WSW 14.0 mph 24.0 mph 72 % 0.00 in 0 W/m2
04:28 55.6 °F 46.7 °F 29.67 in WSW 15.0 mph 26.0 mph 72 % 0.00 in 0 W/m2
04:32 55.8 °F 46.5 °F 29.67 in WSW 17.0 mph 27.0 mph 71 % 0.00 in 0 W/m2
04:37 55.9 °F 46.7 °F 29.67 in WSW 16.0 mph 27.0 mph 71 % 0.00 in 0 W/m2
04:42 55.9 °F 46.7 °F 29.67 in West 14.0 mph 29.0 mph 71 % 0.00 in 0 W/m2
04:47 55.8 °F 46.9 °F 29.67 in West 15.0 mph 29.0 mph 72 % 0.00 in 0 W/m2
04:52 55.8 °F 46.9 °F 29.67 in West 15.0 mph 29.0 mph 72 % 0.00 in 0 W/m2
04:57 55.8 °F 46.9 °F 29.67 in West 16.0 mph 29.0 mph 72 % 0.00 in 0 W/m2
05:02 55.8 °F 46.9 °F 29.67 in West 17.0 mph 25.0 mph 72 % 0.00 in 0 W/m2
05:07 55.8 °F 46.9 °F 29.67 in West 15.0 mph 24.0 mph 72 % 0.00 in 0 W/m2
05:12 55.8 °F 46.9 °F 29.67 in WSW 15.0 mph 23.0 mph 72 % 0.00 in 0 W/m2
05:17 55.8 °F 47.2 °F 29.67 in West 15.0 mph 25.0 mph 73 % 0.00 in 0 W/m2
05:22 55.8 °F 47.2 °F 29.67 in West 15.0 mph 25.0 mph 73 % 0.00 in 0 W/m2
05:27 55.8 °F 47.2 °F 29.67 in WSW 15.0 mph 25.0 mph 73 % 0.00 in 0 W/m2
05:32 55.8 °F 47.2 °F 29.67 in WSW 16.0 mph 26.0 mph 73 % 0.00 in 0 W/m2
05:37 55.8 °F 47.2 °F 29.67 in WSW 17.0 mph 29.0 mph 73 % 0.00 in 0 W/m2
05:42 55.9 °F 47.4 °F 29.67 in West 18.0 mph 31.0 mph 73 % 0.00 in 0 W/m2
05:47 55.8 °F 47.2 °F 29.67 in WSW 17.0 mph 31.0 mph 73 % 0.00 in 0 W/m2
05:52 55.8 °F 47.6 °F 29.67 in West 15.0 mph 26.0 mph 74 % 0.00 in 0 W/m2
05:58 55.6 °F 47.4 °F 29.67 in WSW 14.0 mph 26.0 mph 74 % 0.00 in 0 W/m2
06:03 55.6 °F 47.4 °F 29.68 in WSW 13.0 mph 25.0 mph 74 % 0.00 in 0 W/m2
06:08 55.6 °F 47.8 °F 29.68 in WSW 14.0 mph 27.0 mph 75 % 0.00 in 0 W/m2
06:13 55.6 °F 47.4 °F 29.68 in WSW 16.0 mph 27.0 mph 74 % 0.00 in 0 W/m2
06:18 55.6 °F 47.4 °F 29.67 in WSW 17.0 mph 27.0 mph 74 % 0.00 in 0 W/m2
06:23 55.4 °F 47.6 °F 29.67 in WSW 16.0 mph 27.0 mph 75 % 0.00 in 0 W/m2
06:28 55.2 °F 47.4 °F 29.67 in WSW 14.0 mph 24.0 mph 75 % 0.00 in 0 W/m2
06:33 55.0 °F 47.3 °F 29.67 in WSW 15.0 mph 28.0 mph 75 % 0.00 in 0 W/m2
06:38 55.0 °F 47.3 °F 29.67 in WSW 17.0 mph 31.0 mph 75 % 0.00 in 0 W/m2
06:43 55.2 °F 47.4 °F 29.67 in West 18.0 mph 31.0 mph 75 % 0.00 in 0 W/m2
06:48 55.2 °F 47.4 °F 29.67 in West 18.0 mph 29.0 mph 75 % 0.00 in 0 W/m2
06:53 55.2 °F 47.4 °F 29.68 in West 19.0 mph 30.0 mph 75 % 0.00 in 0 W/m2
06:58 55.2 °F 47.4 °F 29.68 in WSW 18.0 mph 32.0 mph 75 % 0.00 in 0 W/m2
07:03 55.2 °F 47.8 °F 29.68 in WSW 18.0 mph 32.0 mph 76 % 0.00 in 0 W/m2
07:08 55.0 °F 47.6 °F 29.68 in WSW 17.0 mph 28.0 mph 76 % 0.00 in 5 W/m2
07:13 54.9 °F 47.4 °F 29.68 in WSW 17.0 mph 27.0 mph 76 % 0.00 in 7 W/m2
07:18 54.9 °F 47.8 °F 29.69 in WSW 17.0 mph 27.0 mph 77 % 0.00 in 9 W/m2
07:23 54.7 °F 47.6 °F 29.69 in West 16.0 mph 30.0 mph 77 % 0.00 in 11 W/m2
07:28 54.5 °F 47.8 °F 29.69 in West 15.0 mph 30.0 mph 78 % 0.00 in 12 W/m2
07:33 54.3 °F 47.9 °F 29.69 in West 14.0 mph 27.0 mph 79 % 0.00 in 16 W/m2
07:38 54.3 °F 47.9 °F 29.69 in West 14.0 mph 27.0 mph 79 % 0.00 in 21 W/m2
07:43 54.5 °F 48.1 °F 29.69 in WSW 15.0 mph 30.0 mph 79 % 0.00 in 39 W/m2
07:48 54.7 °F 48.3 °F 29.69 in WSW 15.0 mph 30.0 mph 79 % 0.00 in 25 W/m2
07:53 54.7 °F 48.0 °F 29.69 in WSW 14.0 mph 27.0 mph 78 % 0.00 in 26 W/m2
07:58 54.7 °F 48.3 °F 29.69 in WSW 14.0 mph 27.0 mph 79 % 0.00 in 33 W/m2
08:03 54.9 °F 48.5 °F 29.69 in WSW 16.0 mph 29.0 mph 79 % 0.00 in 105 W/m2
08:08 55.0 °F 48.3 °F 29.69 in West 17.0 mph 29.0 mph 78 % 0.00 in 141 W/m2
08:13 55.2 °F 48.5 °F 29.69 in West 15.0 mph 27.0 mph 78 % 0.00 in 146 W/m2
08:18 55.4 °F 48.7 °F 29.69 in West 15.0 mph 30.0 mph 78 % 0.00 in 174 W/m2
08:23 55.6 °F 48.8 °F 29.69 in West 16.0 mph 30.0 mph 78 % 0.00 in 160 W/m2
08:28 55.8 °F 49.0 °F 29.70 in West 15.0 mph 27.0 mph 78 % 0.00 in 169 W/m2
08:29 55.8 °F 48.7 °F 29.70 in West 15.0 mph 27.0 mph 77 % 0.00 in 169 W/m2
08:34 55.9 °F 48.8 °F 29.70 in West 15.0 mph 27.0 mph 77 % 0.00 in 183 W/m2
08:39 56.1 °F 49.0 °F 29.70 in West 16.0 mph 32.0 mph 77 % 0.00 in 193 W/m2
08:44 56.1 °F 49.0 °F 29.70 in West 18.0 mph 32.0 mph 77 % 0.00 in 213 W/m2
08:49 56.3 °F 48.8 °F 29.70 in West 17.0 mph 31.0 mph 76 % 0.00 in 225 W/m2
08:54 56.5 °F 49.0 °F 29.70 in WSW 17.0 mph 31.0 mph 76 % 0.00 in 236 W/m2
08:59 56.7 °F 49.2 °F 29.71 in WSW 18.0 mph 31.0 mph 76 % 0.00 in 250 W/m2
09:04 56.5 °F 49.4 °F 29.71 in West 18.0 mph 31.0 mph 77 % 0.00 in 265 W/m2
09:09 56.3 °F 49.2 °F 29.71 in West 18.0 mph 32.0 mph 77 % 0.00 in 272 W/m2
09:14 56.3 °F 49.5 °F 29.72 in West 20.0 mph 32.0 mph 78 % 0.00 in 288 W/m2
09:19 56.3 °F 49.5 °F 29.72 in West 20.0 mph 32.0 mph 78 % 0.00 in 295 W/m2
09:24 56.5 °F 49.7 °F 29.72 in West 16.0 mph 30.0 mph 78 % 0.00 in 309 W/m2
09:29 56.7 °F 49.9 °F 29.72 in West 16.0 mph 30.0 mph 78 % 0.00 in 323 W/m2
09:34 56.8 °F 50.1 °F 29.72 in West 17.0 mph 30.0 mph 78 % 0.00 in 336 W/m2
09:39 57.0 °F 49.9 °F 29.72 in West 17.0 mph 32.0 mph 77 % 0.00 in 348 W/m2
09:44 57.0 °F 49.9 °F 29.72 in West 18.0 mph 36.0 mph 77 % 0.00 in 360 W/m2
09:49 57.2 °F 50.1 °F 29.72 in West 19.0 mph 36.0 mph 77 % 0.00 in 385 W/m2
09:54 57.2 °F 50.1 °F 29.73 in West 20.0 mph 36.0 mph 77 % 0.00 in 399 W/m2
09:59 57.4 °F 50.2 °F 29.73 in West 21.0 mph 38.0 mph 77 % 0.00 in 408 W/m2
10:04 57.2 °F 50.4 °F 29.73 in West 19.0 mph 38.0 mph 78 % 0.00 in 527 W/m2
10:09 57.4 °F 50.2 °F 29.73 in West 19.0 mph 31.0 mph 77 % 0.00 in 244 W/m2
10:14 57.4 °F 50.2 °F 29.73 in West 21.0 mph 31.0 mph 77 % 0.00 in 299 W/m2
10:19 57.0 °F 50.2 °F 29.72 in West 20.0 mph 37.0 mph 78 % 0.00 in 441 W/m2
10:24 57.0 °F 50.2 °F 29.73 in West 18.0 mph 37.0 mph 78 % 0.00 in 427 W/m2
10:29 57.4 °F 50.2 °F 29.73 in West 18.0 mph 30.0 mph 77 % 0.00 in 332 W/m2
10:34 57.6 °F 50.4 °F 29.73 in West 19.0 mph 30.0 mph 77 % 0.00 in 151 W/m2
10:39 57.4 °F 50.2 °F 29.73 in West 19.0 mph 32.0 mph 77 % 0.00 in 515 W/m2
10:44 57.4 °F 50.6 °F 29.74 in West 19.0 mph 32.0 mph 78 % 0.00 in 533 W/m2
10:49 57.6 °F 50.4 °F 29.73 in West 20.0 mph 30.0 mph 77 % 0.00 in 522 W/m2
10:54 57.7 °F 50.9 °F 29.73 in West 18.0 mph 31.0 mph 78 % 0.00 in 619 W/m2
10:59 57.9 °F 50.8 °F 29.73 in West 17.0 mph 32.0 mph 77 % 0.00 in 320 W/m2
11:04 57.7 °F 50.2 °F 29.73 in West 19.0 mph 34.0 mph 76 % 0.00 in 241 W/m2
11:05 57.7 °F 50.2 °F 29.73 in West 19.0 mph 34.0 mph 76 % 0.00 in 339 W/m2
11:10 57.6 °F 49.7 °F 29.73 in West 20.0 mph 34.0 mph 75 % 0.00 in 278 W/m2
11:15 57.6 °F 50.0 °F 29.73 in West 19.0 mph 34.0 mph 76 % 0.00 in 431 W/m2
11:20 57.9 °F 50.4 °F 29.73 in West 18.0 mph 30.0 mph 76 % 0.00 in 494 W/m2
11:25 58.3 °F 50.4 °F 29.72 in West 17.0 mph 29.0 mph 75 % 0.00 in 570 W/m2
11:30 58.6 °F 50.4 °F 29.72 in West 18.0 mph 31.0 mph 74 % 0.00 in 432 W/m2
11:35 58.8 °F 50.5 °F 29.73 in West 18.0 mph 31.0 mph 74 % 0.00 in 403 W/m2
11:40 58.6 °F 50.0 °F 29.73 in West 18.0 mph 29.0 mph 73 % 0.00 in 364 W/m2
11:45 58.5 °F 49.8 °F 29.73 in West 20.0 mph 34.0 mph 73 % 0.00 in 318 W/m2
11:50 58.5 °F 49.8 °F 29.72 in West 19.0 mph 34.0 mph 73 % 0.00 in 308 W/m2
11:55 58.5 °F 49.8 °F 29.73 in West 18.0 mph 35.0 mph 73 % 0.00 in 450 W/m2
12:00 58.6 °F 50.0 °F 29.72 in West 19.0 mph 35.0 mph 73 % 0.00 in 601 W/m2
12:05 58.6 °F 49.3 °F 29.73 in West 20.0 mph 38.0 mph 71 % 0.00 in 274 W/m2
12:10 58.5 °F 49.1 °F 29.73 in West 21.0 mph 38.0 mph 71 % 0.00 in 272 W/m2
12:15 58.6 °F 49.6 °F 29.72 in West 20.0 mph 34.0 mph 72 % 0.00 in 455 W/m2
12:20 58.8 °F 49.8 °F 29.73 in West 20.0 mph 34.0 mph 72 % 0.00 in 225 W/m2
12:25 58.3 °F 49.3 °F 29.73 in West 21.0 mph 40.0 mph 72 % 0.00 in 179 W/m2
12:30 58.1 °F 49.5 °F 29.73 in West 20.0 mph 40.0 mph 73 % 0.00 in 287 W/m2
12:35 58.3 °F 50.0 °F 29.73 in West 19.0 mph 34.0 mph 74 % 0.00 in 622 W/m2
12:40 58.6 °F 50.0 °F 29.73 in West 21.0 mph 37.0 mph 73 % 0.00 in 585 W/m2
12:45 59.0 °F 50.0 °F 29.72 in West 21.0 mph 37.0 mph 72 % 0.00 in 592 W/m2
12:50 59.4 °F 50.0 °F 29.73 in West 20.0 mph 31.0 mph 71 % 0.00 in 621 W/m2
12:55 59.5 °F 50.1 °F 29.74 in West 21.0 mph 34.0 mph 71 % 0.00 in 461 W/m2
13:00 59.4 °F 50.3 °F 29.74 in West 20.0 mph 36.0 mph 72 % 0.00 in 229 W/m2
13:05 58.5 °F 50.6 °F 29.74 in West 19.0 mph 36.0 mph 75 % 0.00 in 172 W/m2
13:10 57.7 °F 49.9 °F 29.74 in West 18.0 mph 31.0 mph 75 % 0.00 in 297 W/m2
13:15 57.9 °F 50.4 °F 29.74 in West 17.0 mph 31.0 mph 76 % 0.00 in 619 W/m2
13:20 58.5 °F 50.6 °F 29.73 in West 16.0 mph 32.0 mph 75 % 0.00 in 371 W/m2
13:25 58.8 °F 50.2 °F 29.74 in West 17.0 mph 33.0 mph 73 % 0.00 in 322 W/m2
13:30 59.4 °F 51.1 °F 29.74 in West 18.0 mph 33.0 mph 74 % 0.00 in 613 W/m2
13:38 58.8 °F 50.9 °F 29.75 in West 19.0 mph 33.0 mph 75 % 0.00 in 661 W/m2
13:43 58.6 °F 50.4 °F 29.73 in West 19.0 mph 32.0 mph 74 % 0.00 in 606 W/m2
13:48 58.6 °F 49.6 °F 29.73 in West 18.0 mph 30.0 mph 72 % 0.00 in 232 W/m2
13:53 58.8 °F 49.4 °F 29.74 in WSW 19.0 mph 30.0 mph 71 % 0.00 in 582 W/m2
13:58 59.2 °F 50.5 °F 29.74 in WSW 18.0 mph 29.0 mph 73 % 0.00 in 327 W/m2
14:03 59.2 °F 50.2 °F 29.75 in West 18.0 mph 38.0 mph 72 % 0.00 in 248 W/m2
14:08 59.0 °F 48.4 °F 29.74 in West 23.0 mph 41.0 mph 68 % 0.00 in 262 W/m2
14:13 58.8 °F 48.3 °F 29.74 in West 22.0 mph 41.0 mph 68 % 0.00 in 160 W/m2
14:18 58.5 °F 47.9 °F 29.74 in West 19.0 mph 33.0 mph 68 % 0.00 in 554 W/m2
14:23 58.8 °F 47.9 °F 29.75 in West 22.0 mph 35.0 mph 67 % 0.00 in 536 W/m2
14:28 59.0 °F 48.1 °F 29.74 in West 24.0 mph 38.0 mph 67 % 0.00 in 541 W/m2
14:33 59.2 °F 47.8 °F 29.74 in West 23.0 mph 38.0 mph 66 % 0.00 in 239 W/m2
14:38 59.2 °F 47.8 °F 29.75 in West 22.0 mph 38.0 mph 66 % 0.00 in 621 W/m2
14:43 59.4 °F 48.0 °F 29.75 in West 22.0 mph 38.0 mph 66 % 0.00 in 392 W/m2
14:48 59.4 °F 48.4 °F 29.75 in West 22.0 mph 34.0 mph 67 % 0.00 in 392 W/m2
14:53 59.0 °F 48.1 °F 29.74 in West 23.0 mph 43.0 mph 67 % 0.00 in 216 W/m2
14:58 58.6 °F 47.7 °F 29.74 in West 24.0 mph 43.0 mph 67 % 0.00 in 200 W/m2
15:03 58.3 °F 47.8 °F 29.74 in West 21.0 mph 33.0 mph 68 % 0.00 in 262 W/m2
15:08 57.9 °F 48.2 °F 29.75 in West 20.0 mph 33.0 mph 70 % 0.00 in 213 W/m2
15:13 57.7 °F 48.4 °F 29.75 in West 20.0 mph 33.0 mph 71 % 0.00 in 290 W/m2
15:18 57.7 °F 48.4 °F 29.75 in West 19.0 mph 31.0 mph 71 % 0.00 in 455 W/m2
15:23 58.1 °F 48.7 °F 29.76 in West 16.0 mph 28.0 mph 71 % 0.00 in 271 W/m2
15:28 57.9 °F 48.6 °F 29.76 in West 15.0 mph 30.0 mph 71 % 0.00 in 445 W/m2
15:33 57.6 °F 48.2 °F 29.77 in West 17.0 mph 31.0 mph 71 % 0.00 in 213 W/m2
15:38 57.4 °F 48.4 °F 29.77 in West 17.0 mph 33.0 mph 72 % 0.00 in 165 W/m2
15:43 57.4 °F 48.4 °F 29.78 in West 15.0 mph 33.0 mph 72 % 0.00 in 269 W/m2
15:48 57.9 °F 48.6 °F 29.77 in West 13.0 mph 25.0 mph 71 % 0.00 in 410 W/m2
15:53 58.5 °F 48.7 °F 29.77 in West 12.0 mph 25.0 mph 70 % 0.00 in 422 W/m2
15:58 58.6 °F 48.5 °F 29.77 in West 13.0 mph 24.0 mph 69 % 0.00 in 239 W/m2
16:03 58.8 °F 48.7 °F 29.77 in West 13.0 mph 24.0 mph 69 % 0.00 in 424 W/m2
16:08 59.2 °F 48.6 °F 29.78 in West 15.0 mph 26.0 mph 68 % 0.00 in 394 W/m2
16:13 59.2 °F 48.6 °F 29.77 in West 15.0 mph 29.0 mph 68 % 0.00 in 364 W/m2
16:18 58.8 °F 48.3 °F 29.77 in West 16.0 mph 30.0 mph 68 % 0.00 in 301 W/m2
16:23 58.6 °F 48.5 °F 29.77 in West 16.0 mph 30.0 mph 69 % 0.00 in 290 W/m2
16:28 58.5 °F 48.7 °F 29.76 in West 15.0 mph 29.0 mph 70 % 0.00 in 181 W/m2
16:33 58.5 °F 49.1 °F 29.77 in West 14.0 mph 31.0 mph 71 % 0.00 in 264 W/m2
16:39 58.3 °F 48.9 °F 29.77 in West 16.0 mph 31.0 mph 71 % 0.00 in 250 W/m2
16:43 57.9 °F 48.6 °F 29.77 in West 16.0 mph 31.0 mph 71 % 0.00 in 225 W/m2
16:49 57.6 °F 48.6 °F 29.78 in West 15.0 mph 28.0 mph 72 % 0.00 in 148 W/m2
16:54 57.4 °F 48.8 °F 29.78 in West 15.0 mph 25.0 mph 73 % 0.00 in 209 W/m2
16:59 57.4 °F 49.2 °F 29.78 in West 15.0 mph 26.0 mph 74 % 0.00 in 214 W/m2
17:04 57.0 °F 49.2 °F 29.78 in West 15.0 mph 26.0 mph 75 % 0.00 in 186 W/m2
17:09 56.8 °F 49.0 °F 29.78 in West 14.0 mph 25.0 mph 75 % 0.00 in 172 W/m2
17:14 56.8 °F 49.0 °F 29.78 in West 13.0 mph 25.0 mph 75 % 0.00 in 165 W/m2
17:19 56.8 °F 49.0 °F 29.78 in West 12.0 mph 29.0 mph 75 % 0.00 in 47 W/m2
17:24 56.7 °F 48.8 °F 29.78 in West 13.0 mph 29.0 mph 75 % 0.00 in 128 W/m2
17:29 56.7 °F 48.8 °F 29.78 in West 15.0 mph 25.0 mph 75 % 0.00 in 105 W/m2
17:34 56.7 °F 48.8 °F 29.78 in West 14.0 mph 25.0 mph 75 % 0.00 in 107 W/m2
17:39 56.5 °F 48.6 °F 29.79 in West 12.0 mph 23.0 mph 75 % 0.00 in 91 W/m2
17:44 56.5 °F 49.0 °F 29.79 in West 12.0 mph 23.0 mph 76 % 0.00 in 67 W/m2
17:49 56.5 °F 49.0 °F 29.80 in West 11.0 mph 19.0 mph 76 % 0.00 in 62 W/m2
17:54 56.5 °F 49.0 °F 29.80 in West 11.0 mph 24.0 mph 76 % 0.00 in 37 W/m2
17:59 56.3 °F 48.8 °F 29.80 in West 13.0 mph 24.0 mph 76 % 0.00 in 37 W/m2
18:04 56.1 °F 48.7 °F 29.80 in West 12.0 mph 24.0 mph 76 % 0.00 in 32 W/m2
18:09 55.9 °F 48.5 °F 29.80 in West 10.0 mph 20.0 mph 76 % 0.00 in 25 W/m2
18:14 55.9 °F 48.5 °F 29.80 in West 10.0 mph 20.0 mph 76 % 0.00 in 19 W/m2
18:19 55.8 °F 48.3 °F 29.81 in West 8.0 mph 15.0 mph 76 % 0.00 in 16 W/m2
18:24 55.6 °F 48.1 °F 29.82 in West 8.0 mph 18.0 mph 76 % 0.00 in 12 W/m2
18:29 55.6 °F 48.1 °F 29.82 in West 8.0 mph 18.0 mph 76 % 0.00 in 14 W/m2
18:34 55.6 °F 48.1 °F 29.82 in West 10.0 mph 19.0 mph 76 % 0.00 in 7 W/m2
18:39 55.6 °F 48.1 °F 29.83 in West 10.0 mph 19.0 mph 76 % 0.00 in 5 W/m2
18:44 55.6 °F 48.1 °F 29.83 in West 9.0 mph 15.0 mph 76 % 0.00 in 0 W/m2
18:49 55.6 °F 48.5 °F 29.83 in West 11.0 mph 24.0 mph 77 % 0.00 in 0 W/m2
18:54 55.4 °F 48.3 °F 29.84 in West 12.0 mph 24.0 mph 77 % 0.00 in 0 W/m2
18:59 55.2 °F 48.1 °F 29.83 in West 12.0 mph 22.0 mph 77 % 0.00 in 0 W/m2
19:04 55.2 °F 48.1 °F 29.83 in West 14.0 mph 25.0 mph 77 % 0.00 in 0 W/m2
19:10 55.2 °F 47.8 °F 29.83 in WNW 13.0 mph 25.0 mph 76 % 0.00 in 0 W/m2
19:15 55.2 °F 48.1 °F 29.84 in WNW 13.0 mph 23.0 mph 77 % 0.00 in 0 W/m2
19:20 55.2 °F 48.1 °F 29.84 in WNW 13.0 mph 23.0 mph 77 % 0.00 in 0 W/m2
19:25 55.0 °F 48.0 °F 29.84 in West 12.0 mph 24.0 mph 77 % 0.00 in 0 W/m2
19:30 55.0 °F 48.0 °F 29.84 in WNW 13.0 mph 24.0 mph 77 % 0.00 in 0 W/m2
19:35 55.0 °F 48.0 °F 29.84 in WNW 12.0 mph 24.0 mph 77 % 0.00 in 0 W/m2
19:40 55.0 °F 48.0 °F 29.84 in West 10.0 mph 20.0 mph 77 % 0.00 in 0 W/m2
19:45 54.9 °F 48.1 °F 29.85 in West 10.0 mph 20.0 mph 78 % 0.00 in 0 W/m2
19:50 54.9 °F 48.5 °F 29.85 in West 11.0 mph 22.0 mph 79 % 0.00 in 0 W/m2
19:55 54.9 °F 48.5 °F 29.86 in WNW 11.0 mph 22.0 mph 79 % 0.00 in 0 W/m2
20:00 54.9 °F 48.5 °F 29.86 in WNW 10.0 mph 22.0 mph 79 % 0.00 in 0 W/m2
20:05 54.9 °F 48.5 °F 29.86 in WNW 10.0 mph 20.0 mph 79 % 0.00 in 0 W/m2
20:06 54.9 °F 48.5 °F 29.86 in West 10.0 mph 20.0 mph 79 % 0.00 in 0 W/m2
20:11 54.9 °F 48.8 °F 29.86 in WNW 10.0 mph 20.0 mph 80 % 0.00 in 0 W/m2
20:16 54.7 °F 48.6 °F 29.86 in WNW 9.0 mph 19.0 mph 80 % 0.00 in 0 W/m2
20:21 54.5 °F 48.5 °F 29.86 in WNW 9.0 mph 19.0 mph 80 % 0.00 in 0 W/m2
20:26 54.3 °F 48.3 °F 29.86 in West 10.0 mph 16.0 mph 80 % 0.00 in 0 W/m2
20:31 54.3 °F 48.3 °F 29.86 in West 11.0 mph 21.0 mph 80 % 0.00 in 0 W/m2
20:36 54.1 °F 48.1 °F 29.86 in West 11.0 mph 21.0 mph 80 % 0.00 in 0 W/m2
20:41 54.1 °F 48.1 °F 29.86 in West 11.0 mph 18.0 mph 80 % 0.00 in 0 W/m2
20:42 54.1 °F 48.1 °F 29.86 in West 11.0 mph 21.0 mph 80 % 0.00 in 0 W/m2
20:47 54.3 °F 48.6 °F 29.86 in West 12.0 mph 21.0 mph 81 % 0.00 in 0 W/m2
20:52 54.3 °F 48.6 °F 29.86 in West 12.0 mph 21.0 mph 81 % 0.00 in 0 W/m2
20:57 54.3 °F 48.9 °F 29.87 in West 11.0 mph 25.0 mph 82 % 0.00 in 0 W/m2
21:02 54.1 °F 48.8 °F 29.87 in West 12.0 mph 25.0 mph 82 % 0.00 in 0 W/m2
21:07 54.0 °F 48.9 °F 29.87 in WNW 13.0 mph 22.0 mph 83 % 0.00 in 0 W/m2
21:12 54.0 °F 49.6 °F 29.88 in WNW 10.0 mph 18.0 mph 85 % 0.01 in 0 W/m2
21:17 53.8 °F 49.7 °F 29.88 in WNW 8.0 mph 16.0 mph 86 % 0.01 in 0 W/m2
21:22 53.2 °F 49.5 °F 29.88 in NW 8.0 mph 14.0 mph 87 % 0.01 in 0 W/m2
21:27 52.9 °F 49.4 °F 29.88 in NW 8.0 mph 14.0 mph 88 % 0.01 in 0 W/m2
21:32 52.5 °F 49.1 °F 29.88 in NW 6.0 mph 11.0 mph 88 % 0.01 in 0 W/m2
21:37 52.2 °F 48.7 °F 29.89 in NW 8.0 mph 19.0 mph 88 % 0.02 in 0 W/m2
21:42 52.2 °F 49.0 °F 29.88 in NW 10.0 mph 19.0 mph 89 % 0.02 in 0 W/m2
21:47 52.2 °F 49.0 °F 29.88 in WNW 8.0 mph 16.0 mph 89 % 0.02 in 0 W/m2
21:52 52.0 °F 48.8 °F 29.88 in West 7.0 mph 14.0 mph 89 % 0.02 in 0 W/m2
21:57 52.0 °F 48.8 °F 29.88 in West 6.0 mph 12.0 mph 89 % 0.02 in 0 W/m2
22:02 51.8 °F 49.0 °F 29.89 in West 6.0 mph 12.0 mph 90 % 0.02 in 0 W/m2
22:07 51.6 °F 48.8 °F 29.89 in West 7.0 mph 12.0 mph 90 % 0.02 in 0 W/m2
22:12 51.6 °F 48.8 °F 29.88 in West 8.0 mph 18.0 mph 90 % 0.02 in 0 W/m2
22:17 51.6 °F 48.5 °F 29.89 in West 9.0 mph 18.0 mph 89 % 0.02 in 0 W/m2
22:22 51.6 °F 48.5 °F 29.89 in West 9.0 mph 18.0 mph 89 % 0.02 in 0 W/m2
22:24 51.6 °F 48.2 °F 29.89 in West 9.0 mph 18.0 mph 88 % 0.02 in 0 W/m2
22:29 51.8 °F 48.4 °F 29.89 in West 10.0 mph 19.0 mph 88 % 0.02 in 0 W/m2
22:39 52.0 °F 48.2 °F 29.90 in WNW 9.0 mph 15.0 mph 87 % 0.00 in 0 W/m2
22:44 52.0 °F 48.2 °F 29.90 in WNW 9.0 mph 15.0 mph 87 % 0.00 in 0 W/m2
22:49 52.0 °F 48.2 °F 29.91 in WNW 7.0 mph 15.0 mph 87 % 0.00 in 0 W/m2
22:54 51.8 °F 48.1 °F 29.91 in WNW 7.0 mph 14.0 mph 87 % 0.00 in 0 W/m2
22:59 51.8 °F 48.4 °F 29.91 in WNW 8.0 mph 14.0 mph 88 % 0.00 in 0 W/m2
23:04 51.8 °F 48.1 °F 29.91 in WNW 8.0 mph 15.0 mph 87 % 0.00 in 0 W/m2
23:09 52.0 °F 48.2 °F 29.91 in WNW 9.0 mph 15.0 mph 87 % 0.00 in 0 W/m2
23:14 51.8 °F 48.1 °F 29.91 in WNW 9.0 mph 15.0 mph 87 % 0.00 in 0 W/m2
23:19 51.8 °F 48.1 °F 29.91 in WNW 9.0 mph 16.0 mph 87 % 0.00 in 0 W/m2
23:24 51.6 °F 47.9 °F 29.92 in WNW 10.0 mph 19.0 mph 87 % 0.00 in 0 W/m2
23:29 51.6 °F 47.6 °F 29.91 in WNW 10.0 mph 19.0 mph 86 % 0.00 in 0 W/m2
23:34 51.6 °F 47.6 °F 29.91 in WNW 9.0 mph 16.0 mph 86 % 0.00 in 0 W/m2
23:39 51.4 °F 47.4 °F 29.92 in WNW 9.0 mph 16.0 mph 86 % 0.00 in 0 W/m2
23:44 51.4 °F 47.4 °F 29.92 in WNW 8.0 mph 15.0 mph 86 % 0.00 in 0 W/m2
23:49 51.3 °F 47.2 °F 29.91 in WNW 9.0 mph 18.0 mph 86 % 0.00 in 0 W/m2
23:54 51.3 °F 46.9 °F 29.91 in WNW 11.0 mph 24.0 mph 85 % 0.00 in 0 W/m2
23:59 51.3 °F 46.9 °F 29.92 in WNW 11.0 mph 24.0 mph 85 % 0.00 in 0 W/m2
Delerius-Weather
Compliments of Weather Underground - 2.25 mb

Data updates at regular intervals.